World > North America > United States > Illinois > Bader  

Bader, IL Hourly Weather Updates

Feedback E-mail the Weather

Quick Clicks

Bader, IL Weather Maps

°F °C°F °C
Bader Weather Map
UTC Time: 6/19/2024, 13:09
Your Time:

Bader, IL Regional Weather

Expires:202406191400;;292951
ASUS43 KLOT 191306
RWRIL 

ILLINOIS REGIONAL WEATHER ROUNDUP
NATIONAL WEATHER SERVICE CHICAGO/ROMEOVILLE IL
800 AM CDT WED JUN 19 2024

NOTE: "FAIR" INDICATES FEW OR NO CLOUDS BELOW 12,000 FEET WITH NO
SIGNIFICANT WEATHER AND/OR OBSTRUCTIONS TO VISIBILITY.

* THESE STATIONS ARE NOT UNDER NWS QUALITY CONTROL. THEY ALSO MAY NOT
  REPORT WEATHER SUCH AS PRECIPITATION OR FOG.


ILZ025>027-034>036-040-047-049-050-058-095>099-191400-
WEST-CENTRAL ILLINOIS
  
CITY           SKY/WX    TMP DP  RH WIND       PRES   REMARKS
QUINCY         MOSUNNY   78  70  76 S10       30.16R HX  80  TC  26   
GALESBURG*     MOSUNNY   76  73  88 S10       30.18R TC  25           
MACOMB*        MOSUNNY   77  70  78 S12G17    30.19R TC  25           
JACKSONVILLE*  MOSUNNY   78  70  75 S9        30.20R HX  80  TC  26   
PITTSFIELD*    SUNNY     77  74  89 SE8       30.20R TC  25           
$$


SKY/WX - Weather  TMP - Temperature  DP - Dew Point  RH - Humidity
WIND - Wind Direction/Speed PRES - Barometric Pressure VSB - Visibility
WCI - Wind Chill Index E13G22 Wind - East Wind 13 mph/Gusts of 22 mph

Trending Headlines

Trending Entertainment Headlines

Bader Radar Loop

Use the map search tool if you want to place a location marker on the radar map...

Bader Quick Facts

National Two Day Weather Forecast


E-mail the Bader Weather Forecast

Voice your opinion or tell us about page issues...